Location: Pedholt
(56.0260°N, 10.2097°E)
Time: 01:52:23
(UTC+00:00)

SR - Pass Details

Date: 01 August 2021
Orbit: 581 x 873 km, 66.7° (Epoch: 27 September)

Event Time Altitude Azimuth Distance (km) Brightness Sun altitude
Rises 05:28:55 0° 199° (SSW) 3,428 ? 15.3°
Reaches altitude 10° 05:31:31 10° 193° (SSW) 2,472 ? 15.6°
Maximum altitude 05:36:56 46° 122° (ESE) 1,096 ? 16.4°
Drops below altitude 10° 05:42:03 10° 51° (NE) 2,332 ? 17.1°
Sets 05:44:27 0° 45° (NE) 3,216 ? 17.4°
